Regional Weather Roundup
Issued by NWS

Home | Current Version | Previous Version | Text Only | Print | Product List | Glossary Off
Versions: 1 2 3 4 5 6 7 8 9 10 11 12 13 14 15 16 17 18 19 20 21 22 23 24 25 26 27 28 29 30 31 32 33 34 35 36 37 38 39 40 41 42 43 44 45 46 47 48 49 50

000
ASUS43 KDTX 250801
RWRMI
MICHIGAN HOURLY REGIONAL WEATHER ROUNDUP
NATIONAL WEATHER SERVICE DETROIT/PONTIAC MI
400 AM EDT MON JUL 25 2016

NOTE: "FAIR" INDICATES FEW OR NO CLOUDS BELOW 12,000 FEET WITH NO
SIGNIFICANT WEATHER AND/OR OBSTRUCTION TO VISIBILITY.

MIZ047>049-052>055-059>063-066>070-074>076-081>083-250900-
SOUTHEAST LOWER MICHIGAN

CITY           SKY/WX    TMP DP  RH WIND       PRES   REMARKS
ADRIAN         CLOUDY    74  73  97 W5        29.92S THUNDER
ALMA           CLOUDY    76  75  96 W12       29.88S
ANN ARBOR      TSTM      78  76  93 SW12      29.89S
BAD AXE        CLOUDY    74  67  80 SW5       29.84F
CARO           CLOUDY    78  73  82 W6        29.84S
DETROIT CITY   CLOUDY    82  75  79 SW16G22   29.86S
DETROIT        CLOUDY    81  75  82 SW18      29.88R THUNDER
FLINT          CLOUDY    83  76  79 W9        29.86S HX  91
GROSSE ILE     LGT RAIN  82  75  80 W13G18    29.88R
HOWELL         CLOUDY    80  74  81 W20       29.89R

CITY           SKY/WX    TMP DP  RH WIND       PRES   REMARKS
JACKSON        MOCLDY    78  70  76 W10       29.90F
LAMBERTVILLE   HVY RAIN  79  75  89 W7G17     29.95R
LANSING        CLOUDY    79  68  69 W12       29.89R
LAPEER         MOCLDY    79  74  84 W6        29.86S
MASON          CLOUDY    78  66  68 W9G17     29.90S
MONROE         HVY RAIN  77  75  95 SW13G18   29.91R
MT. CLEMENS    MOCLDY    81  75  83 SW10      29.84S
PONTIAC        CLOUDY    78  75  90 SW7       29.87R
PORT HOPE        N/A     76  72  87 VRB6      29.80S
PORT HURON     CLOUDY    75  73  94 SW5       29.84F
TRI CITIES     CLOUDY    76  74  93 W9        29.86R
MIDLAND        NOT AVBL
TROY           CLOUDY    80  74  81 SW7       29.88R
SAGINAW HB     CLOUDY    79  72  78 SW9       29.84F
$$
MIZ043>046-050>051-056>058-064>065-071>073-077>080-250900-
SOUTHWEST LOWER MICHIGAN

CITY           SKY/WX    TMP DP  RH WIND       PRES   REMARKS
BATTLE CREEK   CLOUDY    71  71 100 NW8       29.92F
BENTON HARBOR  CLOUDY    75  69  81 W16       29.93F
BIG RAPIDS     CLOUDY    73  71  95 W5        29.89R
COLDWATER      CLOUDY    71  69  95 SW6       29.93R
FREMONT        FAIR      73  73 100 W6        29.90R
HOLLAND        CLOUDY    75  70  84 SW12      29.92F
GRAND RAPIDS   CLOUDY    76  68  76 W10       29.91S
IONIA          CLOUDY    76  67  75 W9        29.89S
KALAMAZOO      CLOUDY    74  68  81 NW13      29.91F
LUDINGTON      CLOUDY    72  67  84 NW8       29.88S
MARSHALL       LGT RAIN  74  71  91 W13       29.90F
MOUNT PLEASANT CLOUDY    76  73  87 W5        29.86S
MUSKEGON       CLOUDY    74  71  91 SW7       29.91S
SOUTH HAVEN    CLOUDY    75  70  83 W13G20    29.93F
$$
MIZ016>042-250900-
NORTHERN LOWER MICHIGAN

CITY           SKY/WX    TMP DP  RH WIND       PRES   REMARKS
ALPENA         PTCLDY    75  71  87 W5        29.81R
BEAVER ISLAND  CLOUDY    67  66  98 W3        29.83S
BELLAIRE       CLOUDY    71  69  94 CALM      29.85S FOG
CADILLAC       CLOUDY    71  68  91 NW6       29.89R
CHARLEVOIX     MOCLDY    70  69  97 CALM      29.87S
FRANKFORT      CLOUDY    69  66  91 CALM      29.88R
GAYLORD        CLOUDY    71  67  87 W3        29.87R
GRAYLING       CLOUDY    73  69  88 NW5       29.88R
HARBOR SPRINGS CLOUDY    69  69  99 CALM      29.84R FOG
HOUGHTON LAKE  CLOUDY    73  70  90 NW7       29.87R
MANISTEE       CLOUDY    72  67  84 NW5       29.88R
OSCODA         PTCLDY    73  73  99 SW8       29.81R FOG
PELLSTON       CLOUDY    69  66  90 CALM      29.83R
ROGERS CITY    FOG       69  67  94 CALM      29.82S VSB 1/4
TRAVERSE CITY  CLOUDY    73  68  84 SW3       29.85R
$$
MIZ007>008-015-250900-
EASTERN UPPER MICHIGAN

CITY           SKY/WX    TMP DP  RH WIND       PRES   REMARKS
KINROSS        CLOUDY    66  66 100 W6        29.81R
MACKINAC ISLAN PTCLDY    68  68 100 W8        29.81S
NEWBERRY       CLEAR     64  63  97 W6        29.81S
S. S. MARIE    PTCLDY    66  65  96 W5        29.79R
MUNISING         N/A     71  60  68 W12G18    29.81R
$$
MIZ004>006-011>014-085-250900-
CENTRAL UPPER MICHIGAN

CITY           SKY/WX    TMP DP  RH WIND       PRES   REMARKS
MANISTIQUE     CLEAR     68  65  90 W3        29.83S
ESCANABA       CLEAR     64  61  88 W8        29.84S
MENOMINEE        N/A    N/A N/A N/A MISG        N/A
SAWYER-GWINN   CLEAR     64  59  83 W6        29.87R
$$
MIZ001>003-009>011-084-250900-
WESTERN UPPER MICHIGAN

CITY           SKY/WX    TMP DP  RH WIND       PRES   REMARKS
IRON MOUNTAIN  PTCLDY    67  60  78 W6        29.88R
HOUGHTON       CLEAR     66  59  78 W9        29.82R
COPPER HARBOR    N/A     71  58  63 NW10      29.78R
IRONWOOD       CLEAR     63  61  94 W7        29.90R
$$

ABBREVIATIONS USED IN REMARKS
   TC - TEMPERATURE IN CELSIUS
  WCI - WIND CHILL INDEX
   HX - HEAT INDEX
  VSB - VISIBILITY





USA.gov is the U.S. government's official web portal to all federal, state and local government web resources and services.